Millerton Lake Weather Center

Moon Phase Calendar



Millerton Lake Water Level
Online Cameras

 


      

Current Conditions in Auberry
7/12/2024 4:57:33 PM

110°F
Feels Like 114
Clouds
Humidity
23%
Pressure
29.65"
Wind
6.3 mph (N)
Dew Point
64°F
UV Index
2/10 (Low)
Visibility
6 mi

Hourly Forecast

Date & Time Fri, Jul 12
4:00 PM
Fri, Jul 12
5:00 PM
Fri, Jul 12
6:00 PM
Fri, Jul 12
7:00 PM
Fri, Jul 12
8:00 PM
Fri, Jul 12
9:00 PM
Fri, Jul 12
10:00 PM
Fri, Jul 12
11:00 PM
Sat, Jul 13
12:00 AM
Sat, Jul 13
1:00 AM
Sat, Jul 13
2:00 AM
Sat, Jul 13
3:00 AM
Sat, Jul 13
4:00 AM
Sat, Jul 13
5:00 AM
Sat, Jul 13
6:00 AM
Sat, Jul 13
7:00 AM
Sat, Jul 13
8:00 AM
Sat, Jul 13
9:00 AM
Sat, Jul 13
10:00 AM
Sat, Jul 13
11:00 AM
Sat, Jul 13
12:00 PM
Sat, Jul 13
1:00 PM
Sat, Jul 13
2:00 PM
Sat, Jul 13
3:00 PM
Sat, Jul 13
4:00 PM
Sat, Jul 13
5:00 PM
Sat, Jul 13
6:00 PM
Sat, Jul 13
7:00 PM
Sat, Jul 13
8:00 PM
Sat, Jul 13
9:00 PM
Sat, Jul 13
10:00 PM
Sat, Jul 13
11:00 PM
Sun, Jul 14
12:00 AM
Sun, Jul 14
1:00 AM
Sun, Jul 14
2:00 AM
Sun, Jul 14
3:00 AM
Sun, Jul 14
4:00 AM
Sun, Jul 14
5:00 AM
Sun, Jul 14
6:00 AM
Sun, Jul 14
7:00 AM
Sun, Jul 14
8:00 AM
Sun, Jul 14
9:00 AM
Sun, Jul 14
10:00 AM
Sun, Jul 14
11:00 AM
Sun, Jul 14
12:00 PM
Sun, Jul 14
1:00 PM
Sun, Jul 14
2:00 PM
Sun, Jul 14
3:00 PM
Condition
Clouds

Clouds

Clouds

Clouds

Clouds

Clouds

Clouds

Clouds

Clouds

Clouds

Clouds

Clouds

Clouds

Clouds

Clouds

Clouds

Clouds

Clouds

Clouds

Clouds

Clouds

Clouds

Clouds

Clouds

Clouds

Clouds

Clear

Clouds

Clouds

Clouds

Clouds

Clouds

Clear

Clear

Clear

Clear

Clear

Clear

Clear

Clear

Clear

Clear

Clear

Clear

Clear

Clear

Clear

Clear
Temperature 110°F110°F109°F109°F102°F94°F85°F84°F85°F82°F81°F81°F79°F78°F77°F83°F89°F92°F97°F101°F104°F107°F110°F112°F109°F104°F106°F105°F97°F89°F85°F83°F79°F77°F75°F76°F75°F74°F73°F79°F85°F89°F93°F97°F100°F103°F104°F106°F
Feels Like 112°F114°F111°F109°F99°F91°F82°F82°F82°F80°F80°F80°F77°F77°F75°F81°F86°F88°F92°F96°F99°F102°F104°F106°F105°F101°F103°F102°F93°F85°F82°F81°F79°F76°F74°F75°F74°F72°F72°F78°F82°F85°F89°F92°F95°F98°F99°F101°F
Cloudiness 86%87%79%69%52%35%19%22%80%57%56%67%64%70%64%77%84%89%84%76%78%47%36%37%37%40%5%12%18%34%37%41%0%0%0%0%0%1%4%3%3%3%3%3%4%4%4%3%
Visibility 6 mi6 mi6 mi6 mi6 mi6 mi6 mi6 mi6 mi6 mi6 mi6 mi6 mi6 mi6 mi6 mi6 mi6 mi6 mi6 mi6 mi6 mi6 mi6 mi6 mi6 mi6 mi6 mi6 mi6 mi6 mi6 mi6 mi6 mi6 mi6 mi6 mi6 mi6 mi6 mi6 mi6 mi6 mi6 mi6 mi6 mi6 mi6 mi
Precipitation 0%0%0%0%0%0%0%0%0%0%0%0%0%0%0%0%0%0%0%0%0%0%0%0%0%0%0%0%0%0%0%0%0%0%0%0%0%0%0%0%0%0%0%0%0%0%0%0%
Humidity 20%23%20%18%18%19%23%24%22%24%24%24%27%27%29%24%19%17%15%13%11%11%9%8%11%16%14%14%16%20%22%24%29%31%36%34%36%38%37%32%24%19%16%14%12%11%10%10%
Dew Point 60°F64°F59°F56°F51°F46°F44°F44°F43°F42°F41°F41°F42°F42°F42°F43°F42°F42°F41°F41°F41°F41°F40°F41°F44°F51°F49°F47°F44°F43°F43°F43°F44°F44°F47°F46°F47°F47°F46°F47°F44°F42°F40°F40°F39°F38°F39°F39°F
Pressure 29.65"29.65"29.65"29.65"29.68"29.71"29.74"29.74"29.71"29.71"29.74"29.71"29.74"29.74"29.77"29.8"29.83"29.83"29.83"29.83"29.8"29.8"29.77"29.77"29.74"29.74"29.74"29.74"29.74"29.77"29.8"29.83"29.85"29.85"29.85"29.85"29.88"29.88"29.91"29.91"29.94"29.94"29.94"29.94"29.91"29.88"29.85"29.83"
Wind Speed 4.9 mph6.3 mph9.9 mph4.8 mph4.6 mph5.9 mph4.2 mph5.2 mph5.9 mph2.8 mph3.5 mph2.9 mph2.8 mph2.1 mph2.7 mph3.5 mph3.6 mph4 mph3.9 mph5.6 mph5.1 mph6.2 mph6.6 mph4.2 mph6.4 mph16 mph9.7 mph5.8 mph8 mph6.6 mph3.5 mph1.4 mph1.8 mph1.7 mph3.2 mph3.9 mph3.1 mph3.4 mph3.5 mph3 mph3.1 mph3.9 mph3.8 mph5 mph5.9 mph6.8 mph7.1 mph7.2 mph
Wind
Direction
314°
NW
357°
N
29°
NNE
18°
NNE
40°
NE
346°
NNW
15°
NNE
44°
NE
56°
NE
51°
NE
48°
NE
19°
NNE
65°
ENE
122°
ESE
61°
ENE
94°
E
157°
SSE
206°
SSW
207°
SSW
209°
SSW
202°
SSW
194°
SSW
210°
SSW
247°
WSW
30°
NNE
51°
NE
41°
NE

N
323°
NW
345°
NNW

N
71°
ENE
60°
ENE
357°
N
60°
ENE
90°
E
90°
E
78°
ENE
81°
E
88°
E
190°
S
209°
SSW
198°
SSW
195°
SSW
198°
SSW
212°
SSW
227°
SW
240°
WSW

Daily Forecast

Date High Low Precip. Humidity
Today
Jul 12

Clouds
110 °F
79 °F
0%
12%
Saturday
Jul 13

Clouds
112 °F
77 °F
0%
11%
Sunday
Jul 14

Clear
107 °F
73 °F
0%
11%
Monday
Jul 15

Clear
104 °F
71 °F
0%
11%
Tuesday
Jul 16

Clear
102 °F
66 °F
0%
10%
Wednesday
Jul 17

Clear
103 °F
64 °F
0%
7%
Thursday
Jul 18

Clear
106 °F
68 °F
0%
7%
Friday
Jul 19

Clear
107 °F
70 °F
0%
8%
Saturday
Jul 20

Clear
107 °F
69 °F
0%
12%
Sunday
Jul 21

Clear
106 °F
72 °F
0%
12%
Monday
Jul 22

Clear
107 °F
71 °F
0%
9%
Tuesday
Jul 23

Clear
107 °F
73 °F
0%
6%
Wednesday
Jul 24

Clear
105 °F
70 °F
0%
5%
Thursday
Jul 25

Clear
102 °F
70 °F
0%
8%
Friday
Jul 26

Clear
101 °F
65 °F
0%
10%
Saturday
Jul 27

Clear
95 °F
59 °F
0%
15%

Temperature 8-14 Day Outlook



Precipitation 8-14 Day Outlook






About Us
Contact Us
Site Map
Search Site
Advertise With Us
   
Millerton.USLakes.info
THE MILLERTON LAKE WEBSITE

Copyright 2024, Lakes Online
Privacy    |    Legal